P/2025 D3 ( PanSTARRS )

Japanese version
Home page
Updated on May 2, 2025

---------------------------------------------------------------------

* Profile

Discovery Date February 22, 2025
Magnitude 21.6 mag
Discoverer Pan-STARRS 2 telescope (Haleakala)

* Orbital Elements

Epoch 2025 May 5.0 TT = JDT 2460800.5
T 2024 July 25.76108 TT                                 Pike
q   2.9656674            (2000.0)            P               Q
n   0.12475718     Peri.  294.47937     -0.51526674     -0.85681121
a   3.9666664      Node   186.63533     +0.83441589     -0.49638809
e   0.2523527      Incl.    9.64440     +0.19557688     -0.13954719
P   7.90
From 49 observations 2024 Dec. 30-2025 Mar. 27, mean residual 0".2.

* Magnitudes Graph

        m1 = 14.0 + 5 log d + 10.0 log r

---------------------------------------------------------------------

The orbital elements are published on M.P.E.C. 2025-G119.
The magnitudes graphs are made with Comet for Windows.

---------------------------------------------------------------------

Copyright(C) Seiichi Yoshida (comet@aerith.net). All rights reserved.